Location: Moreno
(33.9175°N, 117.1578°W)
Time: 06:28:29
(UTC+00:00)

Cosmos 2297 - Pass Details

Date: 18 April 2024
Orbit: 834 x 859 km, 71.0° (Epoch: 28 May)

Event Time Altitude Azimuth Distance (km) Brightness Sun altitude
Rises 12:26:32 0° 332° (NNW) 3,436 6.8 -10.1°
Reaches altitude 10° 12:29:04 10° 327° (NNW) 2,497 6.0 -9.6°
Maximum altitude 12:34:34 49° 254° (WSW) 1,090 3.9 -8.5°
Drops below altitude 10° 12:40:03 10° 181° (S) 2,481 6.0 -7.5°
Sets 12:42:33 0° 176° (S) 3,411 6.7 -7.0°
